Lakehurst NAS, NJ

2:30 PM EDT on March 24, 2017 (GMT -0400)
Lakehurst Naes

Weather History for KNEL - May, 2013

Change the Weather History Date:

Monday, May 27, 2013

  Actual Average Record
Temperature  
Mean Temperature 62 °F -  
Max Temperature 61 °F 70 °F 81 °F (1998)
Min Temperature 39 °F 54 °F 39 °F (2013)
Degree Days  
Heating Degree Days 2    
Growing Degree Days 12 (Base 50)    
Moisture  
Dew Point 37 °F    
Average Humidity 44    
Maximum Humidity 82    
Minimum Humidity 16    
Precipitation  
Precipitation 0.00 in - - ()
Sea Level Pressure  
Sea Level Pressure 30.21 in    
Wind  
Wind Speed 3 mph (West)    
Max Wind Speed 14 mph    
Max Gust Speed 18 mph    
Averages and records for this station are not official NWS values.
T = Trace of Precipitation, MM = Missing Value Source: NWS Daily Summary

Daily Weather History Graph

Daily Weather History Graph

Search for Another Location

Airport or City:

Trip Planner

Search our weather history database for the weather conditions in past years. The results will help you decide how hot, cold, wet, or windy it might be!

Date:

Astronomy

May. 27, 2013 Rise Set
Actual Time 5:32 AM EDT 8:16 PM EDT
Civil Twilight 5:01 AM EDT 8:48 PM EDT
Nautical Twilight 4:21 AM EDT 9:28 PM EDT
Astronomical Twilight 3:36 AM EDT 10:13 PM EDT
Moon 10:53 PM EDT (5/27) 8:07 AM EDT (5/27)
Length of Visible Light 15h 47m
Length of Day
14h 43m
Waning Gibbous, 91% of the Moon is Illuminated
May 27
Waning Gibbous
May 31
Last Quarter
Jun 8
New
Jun 16
First Quarter
Jun 23
Full

Hourly Weather History & Observations

Time (EDT) Temp. Dew Point Humidity Pressure Visibility Wind Dir Wind Speed Gust Speed Precip Events Conditions
12:00 AM 48.9 °F 39.0 °F 69% 30.21 in - Calm Calm - N/A   Clear
1:00 AM 45.0 °F 37.0 °F 74% 30.22 in - Calm Calm - N/A   Clear
2:00 AM 44.1 °F 36.0 °F 73% 30.22 in - Calm Calm - N/A   Clear
3:00 AM 42.1 °F 37.0 °F 82% 30.23 in - Calm Calm - N/A   Clear
4:00 AM 41.0 °F 36.0 °F 82% 30.23 in - Calm Calm - N/A   Clear
5:00 AM 39.0 °F 34.0 °F 82% 30.24 in - Calm Calm - N/A   Clear
6:00 AM 39.9 °F 34.0 °F 79% 30.24 in - Calm Calm - N/A   Clear
7:00 AM 48.0 °F 39.9 °F 74% 30.25 in - Calm Calm - N/A   Clear
8:00 AM 68.0 °F 41.0 °F 37% 30.25 in - WNW 3.5 mph - N/A   Clear
9:00 AM 73.9 °F 35.1 °F 24% 30.25 in - West 6.9 mph - N/A   Clear
10:00 AM 78.1 °F 30.0 °F 17% 30.25 in - Variable 3.5 mph - N/A   Clear
11:00 AM 75.9 °F 33.1 °F 21% 30.25 in - WNW 9.2 mph - N/A   Clear
12:00 PM 79.0 °F 35.1 °F 20% 30.23 in - WNW 8.1 mph 16.1 mph N/A   Clear
1:00 PM 82.9 °F 35.1 °F 18% 30.21 in - SW 10.4 mph - N/A   Clear
2:00 PM 82.9 °F 33.1 °F 17% 30.19 in - WSW 11.5 mph 18.4 mph N/A   Clear
3:00 PM 84.9 °F 33.1 °F 16% 30.17 in - WNW 10.4 mph 18.4 mph N/A   Clear
4:00 PM 86.0 °F 35.1 °F 16% 30.16 in - West 13.8 mph 18.4 mph N/A   Clear
5:00 PM 84.0 °F 37.0 °F 19% 30.14 in - WSW 8.1 mph 17.3 mph N/A   Clear
6:00 PM 82.0 °F 37.0 °F 20% 30.15 in - WSW 11.5 mph - N/A   Clear
7:00 PM 79.0 °F 37.9 °F 23% 30.15 in - WSW 6.9 mph - N/A   Clear
8:00 PM 75.9 °F 44.1 °F 32% 30.16 in - SW 4.6 mph - N/A   Clear
9:00 PM 63.0 °F 45.0 °F 52% 30.17 in - WSW 3.5 mph - N/A   Clear
10:00 PM 64.0 °F 44.1 °F 48% 30.18 in - SW 3.5 mph - N/A   Clear
11:00 PM 60.1 °F 44.1 °F 55% 30.19 in - SW 3.5 mph - N/A   Clear